Regional Weather Roundup
Issued by NWS

Home | Current Version | Previous Version | Text Only | Print | Product List | Glossary On
Versions: 1 2 3 4 5 6 7 8 9 10 11 12 13 14 15 16 17 18 19 20 21 22 23 24 25 26 27 28 29 30 31 32 33 34 35 36 37 38 39 40 41 42 43 44 45 46 47 48 49 50
000
ASUS45 KPSR 272310
RWRAZ

ARIZONA HOURLY REGIONAL WEATHER ROUNDUP
NATIONAL WEATHER SERVICE PHOENIX AZ
400 PM MST TUE SEP 27 2016

NOTE: FAIR INDICATES FEW OR NO CLOUDS BELOW 12,000 FEET WITH NO
SIGNIFICANT WEATHER AND/OR OBSTRUCTIONS TO VISIBILITY.

AZZ001>003-036-280000-
NORTHWEST ARIZONA

CITY           SKY/WX    TMP DP  RH WIND       PRES   REMARKS
BULLHEAD CITY  MOSUNNY   90  48  24 SW6       29.89F
KINGMAN        PTSUNNY   82  48  30 E12       30.03F
$$

AZZ004>008-015-016-018-280000-
NORTH CENTRAL ARIZONA

CITY           SKY/WX    TMP DP  RH WIND       PRES   REMARKS
GRAND CANYON   MOSUNNY   67  41  38 E9        30.24F
PRESCOTT       MOSUNNY   70  45  40 S9        30.13F
FLAGSTAFF      PTSUNNY   64  45  49 E9        30.23F
PAYSON         MOSUNNY   72  45  37 CALM      30.16F
PAGE           MOSUNNY   81  32  17 NW6       30.11F
$$

AZZ009>014-017-280000-
NORTHEAST ARIZONA

CITY           SKY/WX    TMP DP  RH WIND       PRES   REMARKS
WINSLOW        SUNNY     77  45  32 CALM      30.12F
SAINT JOHNS    CLOUDY    73  46  38 N10       30.14F
WINDOW ROCK    PTSUNNY   70  39  32 SE10      30.27R
SHOW LOW       CLOUDY    52  46  82 NW12      30.21S
$$

AZZ023-280000-
GREATER PHOENIX AREA

CITY           SKY/WX    TMP DP  RH WIND       PRES   REMARKS
PHOENIX        PTSUNNY   87  49  26 VRB6      29.88F
BUCKEYE        MOSUNNY   86  50  28 E12G17    29.90F
GLENDALE       PTSUNNY   88  50  27 E8        29.91F
LUKE AFB       MOSUNNY   87  51  29 E7        29.88F
DEER VALLEY    MOSUNNY   85  47  26 E8G16     29.90F
SCOTTSDALE     PTSUNNY   86  46  24 VRB3      29.92F
MESA-FALCON    PTSUNNY  N/A N/A N/A N12       29.87F
MESA-GATEWAY   MOSUNNY   88  48  25 SE7       29.90F
CHANDLER       PTSUNNY   88  50  27 E10       29.89F
$$

AZZ027-028-280000-
SOUTHWEST MARICOPA COUNTY AND PINAL COUNTY

CITY           SKY/WX    TMP DP  RH WIND       PRES   REMARKS
CASA GRANDE    SUNNY     88  50  27 NE16      29.91F
GILA BEND      MOSUNNY   88  50  26 NE10      29.84F
$$

AZZ503-504-507>509-280000-
SOUTHEAST ARIZONA

CITY           SKY/WX    TMP DP  RH WIND       PRES   REMARKS
TUCSON         PTSUNNY   81  53  37 SE15      29.98S
DAVIS-MONTHAN  PTSUNNY   80  54  39 NE9       29.97F
RYAN FIELD     MOSUNNY   79  55  44 E13G28    29.96S
NOGALES        PTSUNNY   73  56  54 N6        30.02S
SIERRA VISTA   PTSUNNY   74  55  49 VRB6      30.10F
DOUGLAS        PTSUNNY   77  52  41 E15G21    30.06F
SAFFORD        MOSUNNY   79  48  33 SE10      30.04F
$$

AZZ020-021-025-026-031-280000-
SOUTHWEST ARIZONA

CITY           SKY/WX    TMP DP  RH WIND       PRES   REMARKS
YUMA           PTSUNNY   90  51  26 E14       29.83F
$$

CAZ031-033-041-043-047-048-061-280000-
SOUTHERN CALIFORNIA

CITY           SKY/WX    TMP DP  RH WIND       PRES   REMARKS
DOWNTOWN L.A.  MOSUNNY   90  51  26 MISG      29.81R
L.A. AIRPORT   MOSUNNY   84  52  33 W16       29.82R
SAN DIEGO      CLOUDY    83  55  38 S9        29.84S
BURBANK        MOSUNNY   91  44  19 S14       29.83S
ONTARIO        MOSUNNY   94  44  17 SW14      29.83S
RIVERSIDE      SUNNY     97  44  16 SE13G20   29.82S
PALM SPRINGS   CLOUDY    88  49  25 SE9       29.90S
EL CENTRO NAS  MOSUNNY   95  49  20 N8        29.83F
IMPERIAL       MOSUNNY   94  54  25 VRB6      29.81F
BLYTHE         PTSUNNY   91  50  24 NE7       29.85F
NEEDLES        MOSUNNY   89  51  27 CALM      29.90F
$$

NVZ020-UTZ003-280000-
SOUTHERN NEVADA-UTAH

CITY           SKY/WX    TMP DP  RH WIND       PRES   REMARKS
LAS VEGAS      PTSUNNY   89  34  14 E8        29.95F
SALT LAKE CITY MOSUNNY   76  46  34 NW7       30.12F
$$

NMZ009-TXZ055-280000-
NEW MEXICO-WEST TEXAS

CITY           SKY/WX    TMP DP  RH WIND       PRES   REMARKS
ALBUQUERQUE    MOSUNNY   77  35  21 VRB3      30.19F
EL PASO        MOSUNNY   75  44  33 VRB3      30.13F
$$


........................KEY........................
SKY/WX - SKY CONDITION/WEATHER
TMP    - TEMPERATURE IN FAHRENHEIT
DP     - DEW POINT IN FAHRENHEIT
RH     - RELATIVE HUMIDITY IN PERCENT
WIND   - DIRECTION AND SPEED IN MILES PER HOUR (MPH)
VRB    - VARIABLE WIND DIRECTION
PRES   - MEAN SEA LEVEL PRESSURE IN INCHES OF MERCURY
         F - FALLING PRESSURE   R - RISING PRESSURE
         S - STEADY PRESSURE
VSB    - VISIBILITY IN MILES
HX     - HEAT INDEX IN FAHRENHEIT
WCI    - WIND CHILL INDEX IN FAHRENHEIT
TC     - TEMPERATURE IN CELSIUS WHICH IS ALSO KNOWN AS
         TEMPERATURE IN CENTIGRADE
AFB    - AIR FORCE BASE
         LUKE AFB IS LUKE AIR FORCE BASE
         DAVIS-MONTHAN IS DAVIS-MONTHAN AIR FORCE BASE
NAS    - NAVAL AIR STATION
         EL CENTRO NAS IS EL CENTRO NAVAL AIR STATION
N/A    - NOT AVAILABLE




USA.gov is the U.S. government's official web portal to all federal, state and local government web resources and services.